| time (UTC) | temp F | wind direction | speed knots | gust knots | rain 1hr in | rain 24hr in | rain mn in | humidity % | barometer mb |
| 20260505040058 | 57 | 117 | 5.2 | 11.3 | 0.00 | 0.00 | 0.00 | 82 | 1010.3 |
| 20260505034549 | 57 | 132 | 5.2 | 11.3 | 0.00 | 0.00 | 0.00 | 81 | 1010.3 |
| 20260505033050 | 57 | 106 | 6.1 | 16.5 | 0.00 | 0.00 | 0.00 | 81 | 1010.3 |
| 20260505031549 | 57 | 143 | 4.3 | 13.9 | 0.00 | 0.00 | 0.00 | 81 | 1010.4 |
| 20260505030052 | 57 | 119 | 5.2 | 12.2 | 0.00 | 0.00 | 0.00 | 81 | 1010.5 |
| 20260505024550 | 57 | 145 | 4.3 | 10.4 | 0.00 | 0.00 | 0.00 | 79 | 1010.6 |
| 20260505023054 | 58 | 135 | 3.5 | 12.2 | 0.00 | 0.00 | 0.00 | 79 | 1010.6 |
| 20260505021551 | 58 | 148 | 3.5 | 12.2 | 0.00 | 0.00 | 0.00 | 78 | 1010.6 |
| 20260505020051 | 59 | 181 | 1.7 | 7.8 | 0.00 | 0.00 | 0.00 | 76 | 1010.6 |
| 20260505014605 | 60 | 167 | 4.3 | 12.2 | 0.00 | 0.00 | 0.00 | 74 | 1010.4 |
| 20260505013055 | 60 | 84 | 4.3 | 12.2 | 0.00 | 0.00 | 0.00 | 74 | 1010.4 |
| 20260505011600 | 59 | 45 | 3.5 | 10.4 | 0.00 | 0.00 | 0.00 | 74 | 1010.4 |
| 20260505010058 | 60 | 148 | 2.6 | 11.3 | 0.00 | 0.00 | 0.00 | 74 | 1010.1 |
| 20260505004551 | 59 | 147 | 5.2 | 13.0 | 0.00 | 0.00 | 0.00 | 74 | 1010.0 |
| 20260505003053 | 59 | 112 | 2.6 | 9.6 | 0.00 | 0.00 | 0.00 | 75 | 1010.1 |
| 20260505001603 | 59 | 117 | 5.2 | 13.0 | 0.00 | 0.00 | 0.00 | 75 | 1009.9 |
| 20260505000122 | 59 | 184 | 5.2 | 13.0 | 0.00 | 0.00 | 0.00 | 75 | 1009.8 |
| 20260504234607 | 59 | 251 | 5.2 | 12.2 | 0.00 | 0.00 | 0.00 | 75 | 1009.9 |
| 20260504233103 | 59 | 130 | 5.2 | 12.2 | 0.00 | 0.00 | 0.00 | 75 | 1009.8 |
| 20260504231557 | 59 | 153 | 4.3 | 12.2 | 0.00 | 0.00 | 0.00 | 76 | 1009.7 |
| 20260504230057 | 59 | 149 | 5.2 | 13.9 | 0.00 | 0.00 | 0.00 | 76 | 1009.7 |
| 20260504224606 | 59 | 144 | 6.1 | 13.9 | 0.00 | 0.00 | 0.00 | 75 | 1009.6 |
| 20260504223055 | 60 | 134 | 6.1 | 11.3 | 0.00 | 0.00 | 0.00 | 74 | 1009.8 |
| 20260504221552 | 61 | 174 | 7.0 | 14.8 | 0.00 | 0.00 | 0.00 | 73 | 1009.6 |
| 20260504220058 | 61 | 137 | 7.0 | 16.5 | 0.00 | 0.00 | 0.00 | 71 | 1009.6 |
| 20260504214550 | 62 | 112 | 5.2 | 15.6 | 0.00 | 0.00 | 0.00 | 71 | 1009.6 |
| 20260504213119 | 62 | 172 | 9.6 | 15.6 | 0.00 | 0.00 | 0.00 | 70 | 1009.6 |
| 20260504211555 | 62 | 103 | 6.1 | 17.4 | 0.00 | 0.00 | 0.00 | 71 | 1009.6 |
| 20260504210055 | 63 | 120 | 6.1 | 17.4 | 0.00 | 0.00 | 0.00 | 70 | 1009.6 |
| 20260504204554 | 63 | 109 | 6.1 | 16.5 | 0.00 | 0.00 | 0.00 | 68 | 1009.5 |
| 20260504203112 | 63 | 159 | 4.3 | 13.0 | 0.00 | 0.00 | 0.00 | 71 | 1009.5 |
| 20260504201555 | 62 | 119 | 7.0 | 15.6 | 0.00 | 0.00 | 0.00 | 71 | 1009.6 |
| 20260504200055 | 61 | 107 | 8.7 | 16.5 | 0.00 | 0.00 | 0.00 | 71 | 1009.8 |
| 20260504194600 | 61 | 147 | 5.2 | 16.5 | 0.00 | 0.00 | 0.00 | 75 | 1009.8 |
| 20260504193059 | 61 | 185 | 7.0 | 13.9 | 0.00 | 0.00 | 0.00 | 73 | 1009.8 |
| 20260504191549 | 62 | 152 | 7.8 | 14.8 | 0.00 | 0.00 | 0.00 | 70 | 1010.0 |
| 20260504190113 | 62 | 126 | 7.0 | 15.6 | 0.00 | 0.00 | 0.00 | 70 | 1010.2 |
| 20260504184605 | 63 | 136 | 8.7 | 14.8 | 0.00 | 0.00 | 0.00 | 68 | 1010.3 |
| 20260504183053 | 64 | 184 | 7.8 | 15.6 | 0.00 | 0.00 | 0.00 | 68 | 1010.6 |
| 20260504181549 | 64 | 165 | 4.3 | 14.8 | 0.00 | 0.00 | 0.00 | 70 | 1010.6 |
| 20260504180055 | 64 | 119 | 6.1 | 13.9 | 0.00 | 0.00 | 0.00 | 70 | 1010.9 |
| 20260504174601 | 64 | 135 | 4.3 | 13.0 | 0.00 | 0.00 | 0.00 | 70 | 1011.2 |
| 20260504173057 | 64 | 175 | 7.0 | 14.8 | 0.00 | 0.00 | 0.00 | 69 | 1011.2 |
| 20260504171552 | 65 | 175 | 6.1 | 13.9 | 0.00 | 0.00 | 0.00 | 67 | 1011.3 |
| 20260504140106 | 63 | 195 | 3.5 | 13.0 | 0.00 | 0.00 | 0.00 | 61 | 1012.5 |
| 20260504110116 | 49 | 145 | 2.6 | 6.1 | 0.00 | 0.00 | 0.00 | 76 | 1013.7 |
| 20260504090117 | 49 | 177 | 1.7 | 7.8 | 0.00 | 0.00 | 0.00 | 70 | 1013.5 |
| 20260504081555 | 49 | 140 | 1.7 | 5.2 | 0.00 | 0.00 | 0.00 | 69 | 1013.5 |
| 20260504044601 | 49 | 196 | 0.9 | 5.2 | 0.00 | 0.00 | 0.00 | 58 | 1013.0 |
| 20260504043054 | 49 | 158 | 0.9 | 4.3 | 0.00 | 0.00 | 0.00 | 58 | 1012.8 |
| 20260504041556 | 49 | 0 | 0.9 | 5.2 | 0.00 | 0.00 | 0.00 | 57 | 1012.6 |